Location: *
(39.6167°S, 171.5333°W)
Time: 19:28:33
(UTC+00:00)

COSMO-SKYMED 1 - Pass Details

Date: 13 May 2021
Orbit: 621 x 623 km, 97.9° (Epoch: 18 June)

Event Time Altitude Azimuth Distance (km) Brightness Sun altitude
Rises 17:27:28 0° 167° (SSE) 2,942 6.0 -10.8°
Reaches altitude 10° 17:29:41 10° 166° (SSE) 2,027 5.2 -10.4°
Maximum altitude 17:34:07 82° 79° (ENE) 644 2.7 -9.6°
Drops below altitude 10° 17:38:29 10° 349° (N) 1,999 5.3 -8.8°
Sets 17:40:39 0° 348° (NNW) 2,897 6.1 -8.4°
